Flag for Netherlands Weather past 2 weeks in Emmen, Netherlands

Now
51 °F

Overcast.


Feels Like: 51 °F
Forecast: 47 / 58 °F
Wind: 3 mph from South

Location: Meppen

Current Time: Oct 24, 2014 at 9:28:03 AM

Latest Report: Oct 24, 2014 at 7:00 AM


Visibility: 16 mi

Pressure: 30.12 "Hg

Humidity: 84%

Dew point: 47 °F

Location of EmmenLocation

Historic Weather in Emmen — Graph

°F

Emmen temperature yesterday

Maximum temperature yesterday: 54 °F (at 4:00 PM)
Minimum temperature yesterday: 45 °F (at 3:00 AM)
Average temperature yesterday: 50 °F

Past Weeks' High & Low Weather Summary

 TemperatureHumidityPressure
High72 °F (Oct 19, 1:00 PM)96% (Oct 11, 1:00 AM)30.19 "Hg (Oct 11, 1:00 AM)
Low43 °F (Oct 11, 7:00 AM)58% (Oct 14, 2:00 PM)29.38 "Hg (Oct 21, 4:00 PM)
Average55 °F84%29.85 "Hg
* Reported Oct 9 7:00 AM — Oct 24 7:00 AM, Emmen, Weather by CustomWeather, © 2014

Note: Actual official high and low records may vary slightly from our data, if they occured in-between our weather recording intervals... More about our weather records

Advertising

Emmen weather history for previous 24 hours

 ConditionsComfort  
Time TempWeatherWind HumidityBarometerVisibility
7:00 AM
Oct 24
51 °FOvercast.3 mph84%30.12 "Hg16 mi
6:00 AM52 °FPassing clouds.3 mph81%30.12 "Hg16 mi
4:00 AM53 °FCool.3 mph83%30.13 "Hg7 mi
3:00 AM53 °FCool.3 mph85%30.14 "Hg7 mi
2:00 AM54 °FCool.2 mph84%30.14 "Hg6 mi
1:00 AM54 °FCool.3 mph83%30.15 "Hg6 mi
12:00 AM54 °FCool.3 mph84%30.16 "Hg6 mi
10:00 PM
Oct 23
54 °FCool.5 mph82%30.16 "Hg6 mi
9:00 PM54 °FCool.3 mph82%30.15 "Hg6 mi
7:00 PM54 °FCool.2 mph83%30.15 "Hg6 mi
6:00 PM54 °FCool.3 mph82%30.16 "Hg6 mi
4:00 PM54 °FOvercast.3 mph83%30.16 "Hg6 mi
3:00 PM54 °FFog.3 mph85%30.16 "Hg4 mi
2:00 PM52 °FFog.5 mph89%30.17 "Hg3 mi
1:00 PM51 °FLow clouds.5 mph93%30.18 "Hg2 mi
12:00 PM50 °FRain. Low clouds.3 mph92%30.19 "Hg2 mi
10:00 AM49 °FFog.2 mph93%30.18 "Hg2 mi
9:00 AM49 °FLow clouds.3 mph94%30.17 "Hg3 mi
Weather by CustomWeather, © 2014

See weather overviewHow to use our weather pages